Time,TemperatureF,DewpointF,PressureIn,WindDirection,WindDirectionDegrees,WindSpeedMPH,WindSpeedGustMPH,Humidity,HourlyPrecipIn,Conditions,Clouds,dailyrainin,SoftwareType,DateUTC
2013-03-20 00:14:00,10.3,-1.0,30.22,West,263,3.0,-999.0,61,-99.99,,,0.01,weatherlink.com 1.10,2013-03-20 05:14:00,
2013-03-20 00:29:00,10.2,-1.0,30.22,NW,309,1.0,-999.0,61,-99.99,,,0.01,weatherlink.com 1.10,2013-03-20 05:29:00,
2013-03-20 00:44:00,9.9,-1.0,30.22,West,261,6.0,-999.0,62,-99.99,,,0.01,weatherlink.com 1.10,2013-03-20 05:44:00,
2013-03-20 00:59:00,9.9,-1.0,30.22,SW,234,0.0,-999.0,62,-99.99,,,0.01,weatherlink.com 1.10,2013-03-20 05:59:00,
2013-03-20 01:14:00,9.7,-1.0,30.22,WSW,246,4.0,-999.0,63,-99.99,,,0.01,weatherlink.com 1.10,2013-03-20 06:14:00,
2013-03-20 01:29:00,9.3,-1.0,30.23,WNW,291,0.0,-999.0,63,-99.99,,,0.01,weatherlink.com 1.10,2013-03-20 06:29:00,
2013-03-20 01:44:00,9.2,-1.0,30.22,West,270,0.0,-999.0,64,-99.99,,,0.01,weatherlink.com 1.10,2013-03-20 06:44:00,
2013-03-20 01:59:00,8.8,-1.0,30.22,West,269,0.0,-999.0,64,-99.99,,,0.01,weatherlink.com 1.10,2013-03-20 06:59:00,
2013-03-20 02:14:00,8.8,-1.0,30.23,SW,234,2.0,-999.0,65,-99.99,,,0.01,weatherlink.com 1.10,2013-03-20 07:14:00,
2013-03-20 02:29:00,8.6,-1.0,30.22,WSW,240,4.0,-999.0,65,-99.99,,,0.01,weatherlink.com 1.10,2013-03-20 07:29:00,
2013-03-20 02:44:00,8.5,-1.0,30.22,SW,236,4.0,-999.0,65,-99.99,,,0.01,weatherlink.com 1.10,2013-03-20 07:44:00,
2013-03-20 02:59:00,8.2,-1.0,30.22,WSW,255,6.0,-999.0,66,-99.99,,,0.01,weatherlink.com 1.10,2013-03-20 07:59:00,
2013-03-20 03:14:00,8.3,-1.0,30.22,West,272,3.0,-999.0,66,-99.99,,,0.01,weatherlink.com 1.10,2013-03-20 08:14:00,
2013-03-20 03:30:00,8.3,-1.0,30.22,NW,323,0.0,-999.0,65,-99.99,,,0.00,weatherlink.com 1.10,2013-03-20 08:30:00,
2013-03-20 03:45:00,8.1,-2.0,30.21,NW,320,0.0,-999.0,65,-99.99,,,0.00,weatherlink.com 1.10,2013-03-20 08:45:00,
2013-03-20 04:00:00,8.1,-2.0,30.21,West,277,2.0,-999.0,65,-99.99,,,0.00,weatherlink.com 1.10,2013-03-20 09:00:00,
2013-03-20 04:15:00,7.9,-1.0,30.21,NW,325,2.0,-999.0,66,-99.99,,,0.00,weatherlink.com 1.10,2013-03-20 09:15:00,
2013-03-20 04:30:00,7.5,-2.0,30.21,West,268,5.0,-999.0,66,-99.99,,,0.00,weatherlink.com 1.10,2013-03-20 09:30:00,
2013-03-20 04:45:00,7.6,-1.0,30.21,West,264,3.0,-999.0,67,-99.99,,,0.00,weatherlink.com 1.10,2013-03-20 09:45:00,
2013-03-20 05:00:00,7.3,-2.0,30.22,NW,320,2.0,-999.0,67,-99.99,,,0.00,weatherlink.com 1.10,2013-03-20 10:00:00,
2013-03-20 05:15:00,7.3,-2.0,30.22,West,280,0.0,-999.0,67,-99.99,,,0.00,weatherlink.com 1.10,2013-03-20 10:15:00,
2013-03-20 05:30:00,7.0,-2.0,30.23,West,259,0.0,-999.0,67,-99.99,,,0.00,weatherlink.com 1.10,2013-03-20 10:30:00,
2013-03-20 05:45:00,6.7,-2.0,30.23,NNW,330,1.0,-999.0,68,-99.99,,,0.00,weatherlink.com 1.10,2013-03-20 10:45:00,
2013-03-20 06:00:00,6.5,-2.0,30.23,WSW,242,2.0,-999.0,68,-99.99,,,0.00,weatherlink.com 1.10,2013-03-20 11:00:00,
2013-03-20 06:15:00,6.3,-2.0,30.24,North,5,3.0,-999.0,68,-99.99,,,0.00,weatherlink.com 1.10,2013-03-20 11:15:00,
2013-03-20 06:30:00,6.2,-2.0,30.24,WSW,240,0.0,-999.0,69,-99.99,,,0.00,weatherlink.com 1.10,2013-03-20 11:30:00,
2013-03-20 06:46:00,6.1,-2.0,30.24,NNW,341,3.0,-999.0,69,-99.99,,,0.00,weatherlink.com 1.10,2013-03-20 11:46:00,
2013-03-20 07:01:00,6.0,-2.0,30.24,West,280,0.0,-999.0,69,-99.99,,,0.00,weatherlink.com 1.10,2013-03-20 12:01:00,
2013-03-20 07:16:00,6.0,-2.0,30.24,North,360,1.0,-999.0,69,-99.99,,,0.00,weatherlink.com 1.10,2013-03-20 12:16:00,
2013-03-20 07:46:00,6.3,-2.0,30.25,NE,41,0.0,-999.0,68,-99.99,,,0.00,weatherlink.com 1.10,2013-03-20 12:46:00,
2013-03-20 08:01:00,6.9,-2.0,30.24,SW,236,2.0,-999.0,68,-99.99,,,0.00,weatherlink.com 1.10,2013-03-20 13:01:00,
2013-03-20 08:16:00,7.6,-1.0,30.24,West,264,2.0,-999.0,67,-99.99,,,0.00,weatherlink.com 1.10,2013-03-20 13:16:00,
2013-03-20 08:31:00,8.4,-1.0,30.24,WSW,241,2.0,-999.0,65,-99.99,,,0.00,weatherlink.com 1.10,2013-03-20 13:31:00,
2013-03-20 08:46:00,9.5,-1.0,30.24,NW,307,3.0,-999.0,64,-99.99,,,0.00,weatherlink.com 1.10,2013-03-20 13:46:00,
2013-03-20 09:01:00,10.5,0.0,30.23,WSW,253,5.0,-999.0,62,-99.99,,,0.00,weatherlink.com 1.10,2013-03-20 14:01:00,
2013-03-20 09:16:00,11.5,0.0,30.24,WSW,248,0.0,-999.0,60,-99.99,,,0.00,weatherlink.com 1.10,2013-03-20 14:16:00,
2013-03-20 09:31:00,12.7,1.0,30.23,NNW,329,2.0,-999.0,59,-99.99,,,0.00,weatherlink.com 1.10,2013-03-20 14:31:00,
2013-03-20 09:46:00,13.5,1.0,30.23,WSW,248,4.0,-999.0,58,-99.99,,,0.00,weatherlink.com 1.10,2013-03-20 14:46:00,
2013-03-20 10:01:00,14.0,1.0,30.23,NW,305,2.0,-999.0,56,-99.99,,,0.00,weatherlink.com 1.10,2013-03-20 15:01:00,
2013-03-20 10:17:00,15.2,2.0,30.22,West,267,1.0,-999.0,55,-99.99,,,0.00,weatherlink.com 1.10,2013-03-20 15:17:00,
2013-03-20 10:32:00,15.4,1.0,30.22,SSW,209,2.0,-999.0,54,-99.99,,,0.00,weatherlink.com 1.10,2013-03-20 15:32:00,
2013-03-20 10:47:00,15.5,1.0,30.22,WNW,286,1.0,-999.0,54,-99.99,,,0.00,weatherlink.com 1.10,2013-03-20 15:47:00,
2013-03-20 11:02:00,16.8,2.0,30.21,West,281,3.0,-999.0,53,-99.99,,,0.00,weatherlink.com 1.10,2013-03-20 16:02:00,
2013-03-20 11:17:00,16.5,2.0,30.21,WSW,245,3.0,-999.0,53,-99.99,,,0.00,weatherlink.com 1.10,2013-03-20 16:17:00,
2013-03-20 11:32:00,18.2,4.0,30.21,ENE,61,1.0,-999.0,55,-99.99,,,0.00,weatherlink.com 1.10,2013-03-20 16:32:00,
2013-03-20 11:47:00,18.9,5.0,30.20,NE,41,0.0,-999.0,54,-99.99,,,0.00,weatherlink.com 1.10,2013-03-20 16:47:00,
2013-03-20 12:02:00,18.7,4.0,30.20,North,5,3.0,-999.0,52,-99.99,,,0.00,weatherlink.com 1.10,2013-03-20 17:02:00,
2013-03-20 12:17:00,20.3,6.0,30.19,NNE,32,0.0,-999.0,53,-99.99,,,0.00,weatherlink.com 1.10,2013-03-20 17:17:00,
2013-03-20 12:32:00,19.7,5.0,30.19,North,360,0.0,-999.0,52,-99.99,,,0.00,weatherlink.com 1.10,2013-03-20 17:32:00,
2013-03-20 12:47:00,20.0,5.0,30.19,NNW,347,2.0,-999.0,52,-99.99,,,0.00,weatherlink.com 1.10,2013-03-20 17:47:00,
2013-03-20 13:02:00,19.7,5.0,30.18,West,263,1.0,-999.0,52,-99.99,,,0.00,weatherlink.com 1.10,2013-03-20 18:02:00,
2013-03-20 13:17:00,20.8,6.0,30.18,WNW,300,0.0,-999.0,52,-99.99,,,0.00,weatherlink.com 1.10,2013-03-20 18:17:00,
2013-03-20 13:32:00,20.7,6.0,30.18,NW,325,2.0,-999.0,52,-99.99,,,0.00,weatherlink.com 1.10,2013-03-20 18:32:00,
2013-03-20 13:48:00,20.3,5.0,30.17,SW,223,0.0,-999.0,51,-99.99,,,0.00,weatherlink.com 1.10,2013-03-20 18:48:00,
2013-03-20 14:03:00,21.3,6.0,30.17,NNW,347,5.0,-999.0,51,-99.99,,,0.00,weatherlink.com 1.10,2013-03-20 19:03:00,
2013-03-20 14:18:00,21.4,6.0,30.17,WSW,254,4.0,-999.0,52,-99.99,,,0.00,weatherlink.com 1.10,2013-03-20 19:18:00,
2013-03-20 14:33:00,22.0,6.0,30.16,WSW,249,4.0,-999.0,50,-99.99,,,0.00,weatherlink.com 1.10,2013-03-20 19:33:00,
2013-03-20 14:48:00,23.3,8.0,30.16,ESE,121,2.0,-999.0,51,-99.99,,,0.00,weatherlink.com 1.10,2013-03-20 19:48:00,
2013-03-20 15:03:00,23.5,6.0,30.15,SW,235,4.0,-999.0,48,-99.99,,,0.00,weatherlink.com 1.10,2013-03-20 20:03:00,
2013-03-20 15:18:00,24.3,7.0,30.14,SSW,213,3.0,-999.0,48,-99.99,,,0.00,weatherlink.com 1.10,2013-03-20 20:18:00,
2013-03-20 15:33:00,24.6,6.0,30.14,North,350,2.0,-999.0,46,-99.99,,,0.00,weatherlink.com 1.10,2013-03-20 20:33:00,
2013-03-20 15:48:00,23.9,7.0,30.14,WNW,299,1.0,-999.0,49,-99.99,,,0.00,weatherlink.com 1.10,2013-03-20 20:48:00,
2013-03-20 16:03:00,24.8,7.0,30.14,WNW,292,0.0,-999.0,47,-99.99,,,0.00,weatherlink.com 1.10,2013-03-20 21:03:00,
2013-03-20 16:18:00,25.8,8.0,30.14,WSW,248,1.0,-999.0,47,-99.99,,,0.00,weatherlink.com 1.10,2013-03-20 21:18:00,
2013-03-20 16:33:00,23.9,7.0,30.13,WSW,244,4.0,-999.0,48,-99.99,,,0.00,weatherlink.com 1.10,2013-03-20 21:33:00,
2013-03-20 16:48:00,23.8,7.0,30.14,West,260,3.0,-999.0,48,-99.99,,,0.00,weatherlink.com 1.10,2013-03-20 21:48:00,
2013-03-20 17:03:00,24.0,7.0,30.14,WNW,297,0.0,-999.0,49,-99.99,,,0.00,weatherlink.com 1.10,2013-03-20 22:03:00,
2013-03-20 17:19:00,23.9,7.0,30.13,NNW,346,2.0,-999.0,49,-99.99,,,0.00,weatherlink.com 1.10,2013-03-20 22:19:00,
2013-03-20 17:34:00,23.6,7.0,30.14,West,267,2.0,-999.0,49,-99.99,,,0.00,weatherlink.com 1.10,2013-03-20 22:34:00,
2013-03-20 17:49:00,22.8,7.0,30.14,WSW,254,4.0,-999.0,50,-99.99,,,0.00,weatherlink.com 1.10,2013-03-20 22:49:00,
2013-03-20 18:04:00,22.4,6.0,30.14,WSW,252,2.0,-999.0,50,-99.99,,,0.00,weatherlink.com 1.10,2013-03-20 23:04:00,
2013-03-20 18:19:00,21.8,6.0,30.14,NNW,333,1.0,-999.0,50,-99.99,,,0.00,weatherlink.com 1.10,2013-03-20 23:19:00,
2013-03-20 18:34:00,21.3,6.0,30.15,SW,215,2.0,-999.0,51,-99.99,,,0.00,weatherlink.com 1.10,2013-03-20 23:34:00,
2013-03-20 18:49:00,20.1,5.0,30.15,West,263,0.0,-999.0,52,-99.99,,,0.00,weatherlink.com 1.10,2013-03-20 23:49:00,
2013-03-20 19:04:00,19.7,5.0,30.15,West,262,4.0,-999.0,54,-99.99,,,0.00,weatherlink.com 1.10,2013-03-21 00:04:00,
2013-03-20 19:19:00,19.0,5.0,30.15,NNW,337,2.0,-999.0,54,-99.99,,,0.00,weatherlink.com 1.10,2013-03-21 00:19:00,
2013-03-20 19:34:00,18.4,5.0,30.15,WNW,284,3.0,-999.0,55,-99.99,,,0.00,weatherlink.com 1.10,2013-03-21 00:34:00,
2013-03-20 19:49:00,17.9,5.0,30.15,SW,230,0.0,-999.0,56,-99.99,,,0.00,weatherlink.com 1.10,2013-03-21 00:49:00,
2013-03-20 20:04:00,17.3,4.0,30.16,WSW,246,2.0,-999.0,57,-99.99,,,0.00,weatherlink.com 1.10,2013-03-21 01:04:00,
2013-03-20 20:19:00,16.9,4.0,30.16,West,267,0.0,-999.0,58,-99.99,,,0.00,weatherlink.com 1.10,2013-03-21 01:19:00,
2013-03-20 20:34:00,16.1,4.0,30.15,WNW,284,0.0,-999.0,58,-99.99,,,0.00,weatherlink.com 1.10,2013-03-21 01:34:00,
2013-03-20 20:50:00,15.4,4.0,30.16,WNW,284,0.0,-999.0,60,-99.99,,,0.00,weatherlink.com 1.10,2013-03-21 01:50:00,
2013-03-20 21:05:00,15.3,4.0,30.16,WSW,254,1.0,-999.0,60,-99.99,,,0.00,weatherlink.com 1.10,2013-03-21 02:05:00,
2013-03-20 21:20:00,15.1,4.0,30.16,NW,326,0.0,-999.0,61,-99.99,,,0.00,weatherlink.com 1.10,2013-03-21 02:20:00,
2013-03-20 21:35:00,14.5,3.0,30.15,NNW,336,1.0,-999.0,61,-99.99,,,0.00,weatherlink.com 1.10,2013-03-21 02:35:00,
2013-03-20 21:50:00,14.1,3.0,30.15,WSW,252,1.0,-999.0,62,-99.99,,,0.00,weatherlink.com 1.10,2013-03-21 02:50:00,
2013-03-20 22:05:00,13.8,3.0,30.15,NNW,328,0.0,-999.0,62,-99.99,,,0.00,weatherlink.com 1.10,2013-03-21 03:05:00,
2013-03-20 22:20:00,13.5,3.0,30.16,WSW,241,0.0,-999.0,63,-99.99,,,0.00,weatherlink.com 1.10,2013-03-21 03:20:00,
2013-03-20 22:35:00,13.1,3.0,30.16,WSW,249,0.0,-999.0,63,-99.99,,,0.00,weatherlink.com 1.10,2013-03-21 03:35:00,
2013-03-20 22:50:00,12.7,3.0,30.16,West,259,1.0,-999.0,64,-99.99,,,0.00,weatherlink.com 1.10,2013-03-21 03:50:00,
2013-03-20 23:05:00,12.2,2.0,30.16,West,259,0.0,-999.0,65,-99.99,,,0.00,weatherlink.com 1.10,2013-03-21 04:05:00,
2013-03-20 23:20:00,11.4,2.0,30.16,West,259,0.0,-999.0,66,-99.99,,,0.00,weatherlink.com 1.10,2013-03-21 04:20:00,
2013-03-20 23:35:00,11.2,2.0,30.16,West,259,0.0,-999.0,67,-99.99,,,0.00,weatherlink.com 1.10,2013-03-21 04:35:00,
2013-03-20 23:50:00,10.5,2.0,30.16,West,259,0.0,-999.0,68,-99.99,,,0.00,weatherlink.com 1.10,2013-03-21 04:50:00,